Tracking 29932 objects as of 3-Dec-2024
HD Live streaming from Space Station
objects crossing your sky now

STARLINK-32241

Track STARLINK-32241 now!
10-day predictions
STARLINK-32241 is classified as:


NORAD ID: 60437
Int'l Code: 2024-144N
Perigee: 481.4 km
Apogee: 483.4 km
Inclination: 53.2 °
Period: 94.1 minutes
Semi major axis: 6853 km
RCS: Unknown
Launch date: August 12, 2024
Source: United States (US)
Launch site: AIR FORCE EASTERN TEST RANGE (AFETR)
Your satellite tracking list
Your tracking list is empty




NASA's NSSDC Master Catalog

Two Line Element Set (TLE):
1 60437U 24144N   24337.93409920  .00002681  00000-0  10266-3 0  9995
2 60437  53.1527 201.8441 0001500  41.7163 318.3951 15.30181330 18557
Source of the keplerian elements: AFSPC